This demonstration page uses our WeatherBlox Daily Observations layout. Learn more.

Left ArrowRight Arrow

39.51506, -84.39828

Hourly Observations for March 11, 2020

Temp ( °F °C ) Dew Point ( °F °C ) Humidity (%) Winds ( mph kmh ) Pressure ( in mb ) Visibility ( mi km ) Precip ( " mm )
12:15 am 00:15 Cloudy 43 6.1 39 4 87 87 Calm 30.26 1025 10 16.0934 0 0
12:35 am 00:35 Cloudy 43 6.1 39 4 87 87 Calm 30.25 1024 10 16.0934 0 0
12:55 am 00:55 Cloudy 43 6.1 39 4 87 87 Calm 30.24 1024 10 16.0934 0 0
1:15 am 01:15 Cloudy 43 6 39 4 87 87 Calm 30.23 1024 10 16.0934 0 0
1:35 am 01:35 Cloudy 43 6 39 3.9 87 87 Calm 30.23 1024 10 16.0934 0 0
1:55 am 01:55 Cloudy 43 6 39 4 87 87 Calm 30.22 1023 10 16.0934 0 0
2:15 am 02:15 Cloudy 43 6 39 4.1 88 88 Calm 30.21 1023 10 16.0934 0 0
2:35 am 02:35 Cloudy 43 5.9 40 4.2 89 89 Calm 30.21 1023 10 16.0934 0 0
2:55 am 02:55 Cloudy 43 5.9 39 4.1 88 88 Calm 30.2 1023 10 16.0934 0 0
3:15 am 03:15 Cloudy 43 5.9 39 4.1 88 88 Calm 30.18 1022 10 16.0934 0 0
3:35 am 03:35 Cloudy 43 6 40 4.3 89 89 Calm 30.17 1022 10 16.0934 0 0
3:55 am 03:55 Cloudy 43 5.9 40 4.3 90 90 Calm 30.17 1022 10 16.0934 0 0
4:15 am 04:15 Cloudy 43 5.9 40 4.4 90 90 Calm 30.16 1021 10 16.0934 0 0
4:35 am 04:35 Cloudy 43 5.9 40 4.3 90 90 NNW 3 6 30.15 1021 10 16.0934 0 0
4:55 am 04:55 Cloudy 43 5.9 40 4.3 90 90 Calm 30.16 1021 10 16.0934 0 0
5:15 am 05:15 Cloudy 43 5.9 40 4.6 91 91 Calm 30.16 1021 7 11.26538 0 0
5:35 am 05:35 Cloudy with Mist and Fog 42 5.8 40 4.7 93 93 NW 3 6 30.17 1022 5 8.0467 0 0
5:55 am 05:55 Cloudy with Drizzle 42 5.6 41 4.8 95 95 Calm 30.17 1022 3 4.82802 0 0
6:15 am 06:15 Cloudy with Mist and Fog 42 5.5 41 5 97 97 Calm 30.16 1021 3 4.82802 0 0
6:35 am 06:35 Cloudy with Mist and Fog 42 5.6 41 5.2 97 97 NNE 3 6 30.14 1021 3 4.82802 0 0
6:55 am 06:55 Cloudy with Mist and Fog 42 5.5 41 5.2 98 98 Calm 30.12 1020 3.5 5.63269 0 0
7:15 am 07:15 Cloudy with Mist and Fog 42 5.5 41 5.1 97 97 Calm 30.11 1020 4 6.43736 0 0
7:35 am 07:35 Cloudy with Mist and Fog 42 5.5 41 5.2 98 98 N 3 6 30.11 1020 5 8.0467 0 0
7:55 am 07:55 Cloudy with Mist and Fog 42 5.6 41 5.2 97 97 Calm 30.12 1020 4 6.43736 0 0
8:15 am 08:15 Cloudy with Mist and Fog 42 5.6 42 5.3 98 98 Calm 30.1 1019 3 4.82802 0 0
8:35 am 08:35 Cloudy with Mist and Fog 42 5.8 42 5.4 97 97 Calm 30.11 1020 2.5 4.02335 0 0
8:55 am 08:55 Cloudy with Mist and Fog 42 5.8 42 5.4 97 97 Calm 30.12 1020 1.75 2.816345 0 0
9:15 am 09:15 Cloudy with Mist and Fog 43 5.9 42 5.6 98 98 Calm 30.13 1020 2 3.21868 0 0
9:35 am 09:35 Cloudy with Mist and Fog 43 6.1 42 5.8 98 98 Calm 30.13 1020 2 3.21868 0 0
9:55 am 09:55 Cloudy with Mist and Fog 43 6 42 5.7 98 98 Calm 30.13 1020 2 3.21868 0 0
10:15 am 10:15 Cloudy with Mist and Fog 43 6.2 42 5.8 97 97 Calm 30.13 1020 2 3.21868 0 0
10:35 am 10:35 Cloudy with Mist and Fog 44 6.4 43 6 97 97 NE 3 6 30.11 1020 1.75 2.816345 0 0
10:55 am 10:55 Cloudy with Mist and Fog 44 6.5 43 6.1 97 97 Calm 30.12 1020 2.5 4.02335 0 0
11:15 am 11:15 Cloudy with Mist and Fog 44 6.9 43 6.3 96 96 Calm 30.11 1020 3.5 5.63269 0 0
11:35 am 11:35 Cloudy with Mist and Fog 45 7.3 44 6.4 94 94 Calm 30.11 1019 5 8.0467 0 0
11:55 am 11:55 Cloudy with Mist and Fog 46 7.7 44 6.6 93 93 SSW 3 6 30.1 1019 5 8.0467 0 0
12:15 pm 12:15 Cloudy with Mist and Fog 46 7.8 44 6.5 92 92 SSW 6 9 30.1 1019 5 8.0467 0 0
12:35 pm 12:35 Cloudy with Mist and Fog 47 8.1 44 6.6 90 90 WSW 8 13 30.09 1019 5 8.0467 0 0
12:55 pm 12:55 Cloudy 47 8.3 43 6.3 87 87 SW 8 13 30.09 1019 10 16.0934 0 0
1:15 pm 13:15 Cloudy 47 8.5 43 6.3 86 86 SW 7 11 30.09 1019 10 16.0934 0 0
1:35 pm 13:35 Cloudy 48 8.7 43 6.1 84 84 WSW 8 13 30.09 1019 10 16.0934 0 0
1:55 pm 13:55 Cloudy 48 8.8 43 6.2 84 84 SSW 8 13 30.08 1019 10 16.0934 0 0
2:15 pm 14:15 Cloudy 49 9.3 43 6.2 81 81 SW 10 17 30.07 1018 10 16.0934 0 0
2:35 pm 14:35 Cloudy 49 9.7 42 5.7 76 76 SSW 12 19 30.06 1018 10 16.0934 0 0
2:55 pm 14:55 Cloudy 49 9.7 42 5.4 75 75 SW 9 15 30.05 1018 10 16.0934 0 0
3:15 pm 15:15 Cloudy 50 9.9 41 4.9 71 71 SW 13 20 30.05 1018 10 16.0934 0 0
3:35 pm 15:35 Cloudy 50 10.1 42 5.5 73 73 WSW 8 13 30.05 1018 10 16.0934 0 0
3:55 pm 15:55 Cloudy 50 10 42 5.7 75 75 WSW 7 11 30.05 1018 10 16.0934 0 0
4:15 pm 16:15 Cloudy 51 10.5 42 5.4 71 71 SW 8 13 30.03 1017 10 16.0934 0 0
4:35 pm 16:35 Cloudy 51 10.6 42 5.4 70 70 SW 8 13 30.04 1017 10 16.0934 0 0
4:55 pm 16:55 Cloudy 51 10.7 41 5.2 69 69 SW 5 7 30.03 1017 10 16.0934 0 0
5:15 pm 17:15 Cloudy 51 10.7 41 5.2 69 69 W 6 9 30.04 1017 10 16.0934 0 0
5:35 pm 17:35 Cloudy 51 10.6 41 5.1 69 69 W 9 15 30.04 1017 10 16.0934 0 0
5:55 pm 17:55 Cloudy 51 10.5 41 5 69 69 WSW 8 13 30.04 1017 10 16.0934 0 0
6:15 pm 18:15 Cloudy 51 10.3 40 4.7 69 69 WSW 6 9 30.04 1017 10 16.0934 0 0
6:35 pm 18:35 Cloudy 51 10.4 41 4.9 69 69 WSW 7 11 30.04 1017 10 16.0934 0 0
6:55 pm 18:55 Cloudy 50 10.1 41 4.8 70 70 WSW 7 11 30.04 1017 10 16.0934 0 0
7:15 pm 19:15 Cloudy 50 9.9 41 5 72 72 W 5 7 30.04 1017 10 16.0934 0 0
7:35 pm 19:35 Cloudy 49 9.7 41 5 73 73 W 3 6 30.04 1017 10 16.0934 0 0
7:55 pm 19:55 Cloudy 49 9.3 41 5.1 75 75 Calm 30.03 1017 10 16.0934 0 0
8:15 pm 20:15 Cloudy 48 9 41 5 76 76 Calm 30.03 1017 10 16.0934 0 0
8:35 pm 20:35 Cloudy 48 8.9 41 5 77 77 Calm 30.04 1017 10 16.0934 0 0
8:55 pm 20:55 Cloudy 48 9 41 5 76 76 Calm 30.04 1017 10 16.0934 0 0
9:15 pm 21:15 Cloudy 48 8.9 41 5.2 78 78 Calm 30.03 1017 10 16.0934 0 0
9:35 pm 21:35 Cloudy 48 8.8 42 5.4 79 79 Calm 30.03 1017 10 16.0934 0 0
9:55 pm 21:55 Cloudy 48 8.9 42 5.3 78 78 Calm 30.03 1017 10 16.0934 0 0
10:15 pm 22:15 Cloudy 48 8.8 42 5.3 79 79 Calm 30.03 1017 10 16.0934 0 0
10:35 pm 22:35 Cloudy 48 8.7 42 5.4 80 80 Calm 30.03 1017 10 16.0934 0 0
10:55 pm 22:55 Cloudy 48 8.8 42 5.5 80 80 Calm 30.03 1017 10 16.0934 0 0
11:15 pm 23:15 Cloudy 48 8.8 42 5.6 81 81 Calm 30.03 1017 10 16.0934 0 0
11:35 pm 23:35 Cloudy 47 8.4 43 6 85 85 Calm 30.03 1017 10 16.0934 0 0
11:55 pm 23:55 Cloudy 47 8.1 43 6.3 89 89 Calm 30.03 1017 10 16.0934 0 0

Powered by AerisWeather